| time (UTC) | temp C | wind direction | speed KPH | gust KPH | rain 1hr cm | rain 24hr cm | rain mn cm | humidity % | barometer mb |
| 20260508224550 | 6 | 248 | 24.1 | 37.0 | 0.00 | 0.03 | 0.03 | 74 | 1015.3 |
| 20260508223527 | 6 | 248 | 25.7 | 35.4 | 0.00 | 0.03 | 0.03 | 78 | 1015.3 |
| 20260508222524 | 6 | 244 | 22.5 | 40.2 | 0.00 | 0.03 | 0.03 | 78 | 1015.3 |
| 20260508221521 | 6 | 225 | 20.9 | 32.2 | 0.00 | 0.03 | 0.03 | 78 | 1015.4 |
| 20260508220518 | 6 | 234 | 22.5 | 35.4 | 0.00 | 0.03 | 0.03 | 78 | 1015.3 |
| 20260508215615 | 6 | 248 | 20.9 | 33.8 | 0.00 | 0.03 | 0.03 | 79 | 1015.1 |
| 20260508214652 | 6 | 248 | 30.6 | 43.5 | 0.00 | 0.03 | 0.03 | 75 | 1015.0 |
| 20260508213608 | 6 | 237 | 22.5 | 33.8 | 0.00 | 0.03 | 0.03 | 76 | 1015.1 |
| 20260508212605 | 6 | 244 | 24.1 | 35.4 | 0.00 | 0.03 | 0.03 | 77 | 1014.8 |
| 20260508211622 | 6 | 238 | 22.5 | 32.2 | 0.00 | 0.03 | 0.03 | 75 | 1014.7 |
| 20260508210559 | 6 | 244 | 29.0 | 40.2 | 0.00 | 0.03 | 0.03 | 74 | 1014.6 |
| 20260508205616 | 7 | 239 | 25.7 | 37.0 | 0.00 | 0.03 | 0.03 | 74 | 1014.5 |
| 20260508204553 | 6 | 228 | 24.1 | 35.4 | 0.00 | 0.03 | 0.03 | 75 | 1014.5 |
| 20260508203549 | 6 | 248 | 19.3 | 32.2 | 0.00 | 0.03 | 0.03 | 76 | 1014.4 |
| 20260508202546 | 7 | 248 | 24.1 | 40.2 | 0.00 | 0.03 | 0.03 | 74 | 1014.1 |
| 20260508201543 | 7 | 240 | 29.0 | 43.5 | 0.00 | 0.03 | 0.03 | 73 | 1013.8 |
| 20260508200540 | 7 | 229 | 29.0 | 43.5 | 0.00 | 0.03 | 0.03 | 75 | 1013.7 |
| 20260508195537 | 7 | 225 | 22.5 | 32.2 | 0.00 | 0.03 | 0.03 | 75 | 1013.6 |
| 20260508194534 | 7 | 225 | 29.0 | 40.2 | 0.00 | 0.03 | 0.03 | 73 | 1013.4 |
| 20260508193531 | 7 | 237 | 30.6 | 43.5 | 0.00 | 0.03 | 0.03 | 72 | 1013.2 |
| 20260508192527 | 7 | 240 | 30.6 | 43.5 | 0.00 | 0.03 | 0.03 | 71 | 1013.0 |
| 20260508191524 | 7 | 240 | 30.6 | 43.5 | 0.00 | 0.03 | 0.03 | 69 | 1013.0 |
| 20260508190521 | 7 | 245 | 29.0 | 43.5 | 0.00 | 0.03 | 0.03 | 73 | 1012.7 |
| 20260508185518 | 7 | 221 | 27.4 | 38.6 | 0.00 | 0.03 | 0.03 | 76 | 1012.6 |
| 20260508184615 | 7 | 222 | 25.7 | 35.4 | 0.00 | 0.03 | 0.03 | 76 | 1012.6 |
| 20260508183632 | 7 | 237 | 37.0 | 54.7 | 0.00 | 0.03 | 0.03 | 74 | 1012.4 |
| 20260508182608 | 8 | 225 | 32.2 | 43.5 | 0.00 | 0.03 | 0.03 | 74 | 1012.2 |
| 20260508181605 | 8 | 229 | 29.0 | 40.2 | 0.00 | 0.03 | 0.03 | 74 | 1012.3 |
| 20260508180602 | 8 | 225 | 29.0 | 37.0 | 0.00 | 0.03 | 0.03 | 74 | 1012.1 |
| 20260508175559 | 8 | 221 | 32.2 | 48.3 | 0.00 | 0.03 | 0.03 | 74 | 1011.9 |
| 20260508174636 | 8 | 225 | 33.8 | 43.5 | 0.00 | 0.03 | 0.03 | 73 | 1011.8 |
| 20260508173553 | 8 | 233 | 30.6 | 40.2 | 0.00 | 0.03 | 0.03 | 70 | 1011.6 |
| 20260508172610 | 8 | 218 | 29.0 | 40.2 | 0.00 | 0.03 | 0.03 | 72 | 1011.5 |
| 20260508171547 | 10 | 244 | 32.2 | 46.7 | 0.00 | 0.03 | 0.03 | 68 | 1011.2 |
| 20260508170543 | 9 | 233 | 30.6 | 43.5 | 0.00 | 0.03 | 0.03 | 70 | 1011.2 |
| 20260508165540 | 9 | 218 | 38.6 | 51.5 | 0.00 | 0.03 | 0.03 | 70 | 1011.0 |
| 20260508164557 | 9 | 237 | 38.6 | 54.7 | 0.00 | 0.03 | 0.03 | 70 | 1011.0 |
| 20260508163534 | 10 | 237 | 32.2 | 43.5 | 0.00 | 0.03 | 0.03 | 68 | 1011.0 |
| 20260508162531 | 9 | 229 | 38.6 | 51.5 | 0.00 | 0.03 | 0.03 | 69 | 1010.9 |
| 20260508161527 | 9 | 229 | 38.6 | 51.5 | 0.00 | 0.03 | 0.03 | 69 | 1010.7 |
| 20260508160524 | 10 | 228 | 35.4 | 48.3 | 0.00 | 0.03 | 0.03 | 70 | 1010.6 |
| 20260508155521 | 10 | 218 | 35.4 | 48.3 | 0.00 | 0.03 | 0.03 | 71 | 1010.6 |
| 20260508154518 | 10 | 232 | 35.4 | 49.9 | 0.00 | 0.03 | 0.03 | 68 | 1010.5 |
| 20260508153615 | 10 | 214 | 40.2 | 54.7 | 0.00 | 0.03 | 0.03 | 68 | 1010.4 |
| 20260508152612 | 10 | 218 | 41.8 | 57.9 | 0.00 | 0.03 | 0.03 | 72 | 1010.3 |
| 20260508151608 | 10 | 210 | 38.6 | 54.7 | 0.00 | 0.03 | 0.03 | 71 | 1010.4 |
| 20260508150606 | 10 | 218 | 35.4 | 46.7 | 0.00 | 0.03 | 0.03 | 73 | 1010.3 |
| 20260508145642 | 10 | 218 | 33.8 | 43.5 | 0.00 | 0.03 | 0.03 | 72 | 1010.2 |
| 20260508144559 | 11 | 197 | 35.4 | 54.7 | 0.00 | 0.03 | 0.03 | 68 | 1010.1 |
| 20260508143556 | 10 | 222 | 32.2 | 43.5 | 0.00 | 0.03 | 0.03 | 69 | 1010.2 |
| 20260508142553 | 10 | 206 | 37.0 | 48.3 | 0.00 | 0.03 | 0.03 | 70 | 1010.1 |
| 20260508141550 | 10 | 195 | 37.0 | 51.5 | 0.00 | 0.03 | 0.03 | 70 | 1010.2 |
| 20260508140607 | 10 | 225 | 33.8 | 48.3 | 0.00 | 0.03 | 0.03 | 76 | 1010.2 |
| 20260508135544 | 10 | 218 | 40.2 | 54.7 | 0.00 | 0.03 | 0.03 | 75 | 1009.9 |
| 20260508134541 | 10 | 195 | 43.5 | 61.2 | 0.00 | 0.03 | 0.03 | 73 | 1009.8 |
| 20260508133537 | 11 | 195 | 40.2 | 54.7 | 0.00 | 0.03 | 0.03 | 72 | 1009.6 |
| 20260508132534 | 11 | 187 | 38.6 | 54.7 | 0.00 | 0.03 | 0.03 | 70 | 1009.8 |
| 20260508131531 | 10 | 199 | 41.8 | 57.9 | 0.00 | 0.03 | 0.03 | 70 | 1009.7 |
| 20260508130528 | 11 | 191 | 41.8 | 57.9 | 0.00 | 0.03 | 0.03 | 68 | 1009.5 |
| 20260508125524 | 11 | 198 | 38.6 | 54.7 | 0.00 | 0.03 | 0.03 | 68 | 1009.5 |
| 20260508124541 | 10 | 221 | 37.0 | 48.3 | 0.00 | 0.03 | 0.03 | 71 | 1009.5 |
| 20260508123518 | 10 | 210 | 41.8 | 54.7 | 0.00 | 0.03 | 0.03 | 69 | 1009.6 |
| 20260508122635 | 10 | 203 | 40.2 | 49.9 | 0.00 | 0.03 | 0.03 | 69 | 1009.6 |
| 20260508121612 | 11 | 195 | 40.2 | 51.5 | 0.00 | 0.03 | 0.03 | 68 | 1009.5 |
| 20260508120609 | 11 | 192 | 35.4 | 48.3 | 0.00 | 0.03 | 0.03 | 69 | 1009.5 |
| 20260508115606 | 10 | 191 | 40.2 | 49.9 | 0.00 | 0.03 | 0.03 | 69 | 1009.5 |
| 20260508114602 | 10 | 198 | 37.0 | 49.9 | 0.00 | 0.03 | 0.03 | 71 | 1009.4 |
| 20260508113559 | 10 | 194 | 35.4 | 46.7 | 0.00 | 0.03 | 0.03 | 69 | 1009.4 |
| 20260508112556 | 10 | 187 | 40.2 | 54.7 | 0.00 | 0.03 | 0.03 | 67 | 1009.0 |
| 20260508111553 | 11 | 184 | 40.2 | 51.5 | 0.00 | 0.03 | 0.03 | 67 | 1009.1 |
| 20260508110550 | 11 | 202 | 35.4 | 48.3 | 0.00 | 0.03 | 0.03 | 67 | 1009.0 |
| 20260508105547 | 11 | 198 | 37.0 | 46.7 | 0.00 | 0.03 | 0.03 | 67 | 1009.0 |
| 20260508104544 | 11 | 198 | 37.0 | 51.5 | 0.00 | 0.03 | 0.03 | 67 | 1009.0 |
| 20260508103540 | 11 | 195 | 35.4 | 43.5 | 0.00 | 0.03 | 0.03 | 66 | 1009.0 |
| 20260508102537 | 10 | 204 | 35.4 | 46.7 | 0.00 | 0.03 | 0.03 | 67 | 1008.9 |
| 20260508101535 | 10 | 206 | 33.8 | 46.7 | 0.00 | 0.03 | 0.03 | 69 | 1009.0 |
| 20260508100531 | 11 | 207 | 30.6 | 40.2 | 0.00 | 0.03 | 0.03 | 68 | 1009.0 |
| 20260508095528 | 10 | 213 | 35.4 | 43.5 | 0.00 | 0.03 | 0.03 | 69 | 1008.8 |
| 20260508094525 | 10 | 199 | 33.8 | 46.7 | 0.00 | 0.03 | 0.03 | 71 | 1008.9 |
| 20260508093521 | 10 | 218 | 35.4 | 43.5 | 0.00 | 0.03 | 0.03 | 70 | 1008.8 |
| 20260508092519 | 10 | 195 | 35.4 | 49.9 | 0.00 | 0.03 | 0.03 | 70 | 1008.7 |
| 20260508091515 | 10 | 203 | 33.8 | 43.5 | 0.00 | 0.03 | 0.03 | 72 | 1008.5 |
| 20260508090612 | 10 | 196 | 29.0 | 35.4 | 0.00 | 0.03 | 0.03 | 75 | 1008.4 |
| 20260508085629 | 10 | 195 | 32.2 | 43.5 | 0.00 | 0.03 | 0.03 | 73 | 1008.3 |
| 20260508084606 | 10 | 201 | 30.6 | 40.2 | 0.00 | 0.03 | 0.03 | 75 | 1008.3 |
| 20260508083623 | 10 | 194 | 32.2 | 38.6 | 0.00 | 0.03 | 0.03 | 76 | 1008.2 |
| 20260508082600 | 9 | 195 | 33.8 | 43.5 | 0.00 | 0.03 | 0.03 | 78 | 1007.9 |
| 20260508081557 | 10 | 207 | 30.6 | 38.6 | 0.00 | 0.03 | 0.03 | 81 | 1007.9 |
| 20260508080553 | 9 | 202 | 27.4 | 37.0 | 0.00 | 0.03 | 0.03 | 79 | 1007.8 |
| 20260508075550 | 9 | 199 | 30.6 | 38.6 | 0.00 | 0.03 | 0.03 | 81 | 1007.7 |
| 20260508074547 | 9 | 184 | 29.0 | 38.6 | 0.00 | 0.03 | 0.03 | 82 | 1007.6 |
| 20260508073544 | 9 | 199 | 32.2 | 43.5 | 0.00 | 0.03 | 0.03 | 83 | 1007.5 |
| 20260508072541 | 9 | 199 | 32.2 | 43.5 | 0.00 | 0.03 | 0.03 | 82 | 1007.3 |
| 20260508071538 | 9 | 203 | 30.6 | 38.6 | 0.00 | 0.03 | 0.03 | 85 | 1007.1 |
| 20260508070535 | 9 | 187 | 30.6 | 43.5 | 0.00 | 0.03 | 0.03 | 85 | 1007.2 |
| 20260508065532 | 9 | 195 | 29.0 | 38.6 | 0.00 | 0.03 | 0.03 | 86 | 1007.1 |
| 20260508064528 | 9 | 173 | 30.6 | 38.6 | 0.03 | 0.03 | 0.03 | 89 | 1007.0 |
| 20260508063525 | 8 | 168 | 22.5 | 29.0 | 0.03 | 0.03 | 0.03 | 90 | 1007.0 |
| 20260508062522 | 8 | 172 | 24.1 | 29.0 | 0.03 | 0.03 | 0.03 | 91 | 1006.9 |
| 20260508061538 | 8 | 162 | 22.5 | 27.4 | 0.03 | 0.03 | 0.03 | 91 | 1006.7 |
| 20260508060515 | 8 | 172 | 22.5 | 29.0 | 0.03 | 0.03 | 0.03 | 91 | 1006.8 |
| 20260508055612 | 8 | 173 | 22.5 | 32.2 | 0.03 | 0.03 | 0.03 | 91 | 1006.8 |
| 20260508054609 | 8 | 176 | 24.1 | 29.0 | 0.00 | 0.00 | 0.00 | 91 | 1006.7 |
| 20260508053607 | 8 | 173 | 25.7 | 35.4 | 0.00 | 0.00 | 0.00 | 91 | 1006.5 |
| 20260508052603 | 8 | 173 | 22.5 | 29.0 | 0.00 | 0.00 | 0.00 | 91 | 1006.5 |
| 20260508051600 | 8 | 178 | 24.1 | 33.8 | 0.00 | 0.00 | 0.00 | 91 | 1006.5 |
| 20260508050556 | 8 | 172 | 24.1 | 32.2 | 0.00 | 0.00 | 0.00 | 91 | 1006.3 |
| 20260508045553 | 8 | 160 | 24.1 | 33.8 | 0.00 | 0.00 | 0.00 | 91 | 1006.4 |
| 20260508044550 | 8 | 180 | 25.7 | 32.2 | 0.00 | 0.00 | 0.00 | 91 | 1006.3 |
| 20260508043547 | 8 | 169 | 24.1 | 29.0 | 0.00 | 0.00 | 0.00 | 92 | 1006.4 |
| 20260508042544 | 8 | 180 | 22.5 | 33.8 | 0.00 | 0.00 | 0.00 | 92 | 1006.5 |
| 20260508041601 | 8 | 184 | 24.1 | 29.0 | 0.00 | 0.00 | 0.00 | 91 | 1006.4 |
| 20260508040538 | 8 | 173 | 24.1 | 33.8 | 0.00 | 0.00 | 0.00 | 91 | 1006.4 |
| 20260508035535 | 8 | 166 | 27.4 | 35.4 | 0.00 | 0.00 | 0.00 | 91 | 1006.3 |
| 20260508034532 | 8 | 169 | 25.7 | 37.0 | 0.00 | 0.00 | 0.00 | 92 | 1006.4 |
| 20260508033528 | 8 | 161 | 24.1 | 33.8 | 0.00 | 0.00 | 0.00 | 92 | 1006.4 |
| 20260508032525 | 8 | 175 | 24.1 | 33.8 | 0.00 | 0.00 | 0.00 | 92 | 1006.4 |
| 20260508031542 | 8 | 183 | 25.7 | 37.0 | 0.00 | 0.00 | 0.00 | 92 | 1006.5 |
| 20260508030519 | 8 | 156 | 25.7 | 33.8 | 0.00 | 0.00 | 0.00 | 92 | 1006.4 |
| 20260508025515 | 8 | 149 | 27.4 | 37.0 | 0.00 | 0.00 | 0.00 | 92 | 1006.6 |
| 20260508024613 | 8 | 151 | 27.4 | 37.0 | 0.00 | 0.00 | 0.00 | 91 | 1006.6 |
| 20260508023629 | 8 | 157 | 27.4 | 37.0 | 0.00 | 0.00 | 0.00 | 91 | 1006.6 |
| 20260508022606 | 8 | 156 | 27.4 | 38.6 | 0.00 | 0.00 | 0.00 | 91 | 1006.5 |
| 20260508021623 | 8 | 154 | 29.0 | 38.6 | 0.00 | 0.00 | 0.00 | 91 | 1006.7 |
| 20260508020600 | 8 | 158 | 32.2 | 46.7 | 0.00 | 0.00 | 0.00 | 91 | 1006.8 |
| 20260508015617 | 8 | 158 | 30.6 | 43.5 | 0.00 | 0.00 | 0.00 | 91 | 1006.7 |
| 20260508014554 | 8 | 146 | 32.2 | 43.5 | 0.00 | 0.00 | 0.00 | 91 | 1006.8 |
| 20260508013551 | 8 | 158 | 30.6 | 49.9 | 0.00 | 0.00 | 0.00 | 91 | 1006.9 |
| 20260508012548 | 8 | 161 | 33.8 | 48.3 | 0.00 | 0.00 | 0.00 | 90 | 1006.9 |
| 20260508011544 | 8 | 158 | 33.8 | 46.7 | 0.00 | 0.00 | 0.00 | 90 | 1006.9 |
| 20260508010622 | 8 | 154 | 32.2 | 43.5 | 0.00 | 0.00 | 0.00 | 90 | 1007.0 |
| 20260508005538 | 8 | 143 | 30.6 | 43.5 | 0.00 | 0.00 | 0.00 | 90 | 1007.0 |
| 20260508004535 | 8 | 176 | 35.4 | 49.9 | 0.00 | 0.00 | 0.00 | 90 | 1006.9 |
| 20260508003632 | 8 | 173 | 35.4 | 46.7 | 0.00 | 0.00 | 0.00 | 89 | 1007.1 |
| 20260508002529 | 8 | 154 | 32.2 | 49.9 | 0.00 | 0.00 | 0.00 | 89 | 1007.3 |
| 20260508001526 | 8 | 153 | 35.4 | 54.7 | 0.00 | 0.00 | 0.00 | 90 | 1007.1 |
| 20260508000522 | 8 | 135 | 30.6 | 35.4 | 0.00 | 0.00 | 0.00 | 89 | 1007.2 |
| 20260507235521 | 8 | 154 | 35.4 | 46.7 | 0.00 | 0.00 | 0.00 | 89 | 1007.3 |
| 20260507234516 | 8 | 172 | 30.6 | 43.5 | 0.00 | 0.00 | 0.00 | 89 | 1007.4 |
| 20260507233613 | 8 | 147 | 32.2 | 43.5 | 0.00 | 0.00 | 0.00 | 88 | 1007.5 |
| 20260507232612 | 8 | 154 | 30.6 | 43.5 | 0.00 | 0.00 | 0.00 | 88 | 1007.6 |
| 20260507231626 | 8 | 160 | 30.6 | 48.3 | 0.00 | 0.00 | 0.00 | 88 | 1007.7 |
| 20260507230603 | 8 | 157 | 30.6 | 43.5 | 0.00 | 0.00 | 0.00 | 88 | 1007.7 |
| 20260507225600 | 8 | 177 | 29.0 | 43.5 | 0.00 | 0.00 | 0.00 | 88 | 1007.8 |